Other Public Products
Issued by NWS Charleston, SC

Current Version | Previous Version | Graphics & Text | Print | Product List | Glossary On
Versions: 1 2 3 4 5 6 7 8 9 10 11 12 13 14 15 16 17 18 19 20 21 22 23 24 25 26 27 28 29 30 31 32 33 34 35 36 37 38 39 40 41 42 43 44 45 46 47 48 49 50
000 FPUS82 KCHS 281627 OPUCHS TEST...KCHS/KSAV Gateway Observations...TEST National Weather Service Charleston SC 1200 PM EDT FRI APR 28 2017 NOTE: "fair" indicates few or no clouds below 12,000 feet with no significant weather and/or obstructions to visibility. SCZ050-WAZ558-NCZ071-TXZ119-213-PAZ071-DCZ001-FLZ074-172-MI076- NYZ176-178-MAZ016-IL014-TNZ027-NJZ106-GAZ044-MD014-281700- ...Gateway Observations for Charleston International... CITY SKY/WX TMP DP RH WIND PRES REMARKS Chas Airport MOSUNNY 85 71 63 S12 30.10R HX 90 Seattle PTSUNNY 45 41 86 S5 30.35R Charlotte CLOUDY 78 66 66 S9 30.09R Dallas DFW CLOUDY 78 66 66 SW12 29.62S Dallas Love CLOUDY 78 65 63 SW10 29.63F Philladelphia MOSUNNY 80 55 42 SW10 30.02R Wash National MOSUNNY 79 60 52 E6 30.04S Baltimore MOSUNNY 79 58 48 W10 30.04R Miami PTSUNNY 85 70 60 E14G24 30.09F Detroit PTSUNNY 59 43 55 SW16 30.00F Newark MOSUNNY 78 58 49 S6 29.99R Laguardia MOSUNNY 74 61 63 NE5 29.98S J F K MOSUNNY 70 62 76 S8 30.01R Boston Logan MOSUNNY 68 60 75 W7 29.96S Ft. Lauderdale PTSUNNY 84 73 69 SE17 30.09S HX 90 Chicago O`Hare CLOUDY 55 41 59 VRB5 29.94R Chicago Midway PTSUNNY 56 45 66 VRB6 29.95R Houston Bush MOSUNNY 84 71 65 S16 29.70R Houston Hobby MOSUNNY 82 73 74 S15G22 29.69R Nashville MOSUNNY 76 64 66 S13G21 29.94S Atlanta MOSUNNY 78 66 66 S13 30.05S $$ GAZ044-118-TXZ119-213-NCZ071-DCZ001-MDZ014-506-PAZ021-071-NJZ106- NYZ176-178-MAZ106-OHZ011-021-055-MIZ076-KYZ091-ILZ014-INZ047- MNZ060-ONZ431-281700- ...Gateway Observations for Savannah International... CITY SKY/WX TMP DP RH WIND PRES REMARKS Savannah Arpt MOSUNNY 88 64 44 S7 30.09R Atlanta MOSUNNY 78 66 66 S13 30.05S Charlotte CLOUDY 78 66 66 S9 30.09R Dallas DFW CLOUDY 78 66 66 SW12 29.62S Houston Bush MOSUNNY 84 71 65 S16 29.70R Wash National MOSUNNY 79 60 52 E6 30.04S Wash Dulles MOSUNNY 77 58 51 E3 30.05S Baltimore MOSUNNY 79 58 48 W10 30.04R Philadelphia MOSUNNY 80 55 42 SW10 30.02R Newark MOSUNNY 78 58 49 S6 29.99R Laguardia MOSUNNY 74 61 63 NE5 29.98S J F K MOSUNNY 70 62 76 S8 30.01R Boston MOSUNNY 68 60 75 W7 29.96S Pittsburg MOSUNNY 64 47 53 S8 30.05F Akron PTSUNNY 60 45 57 S10 30.04S Cleveland PTSUNNY 61 41 47 SW12 30.07R Cincinnati PTSUNNY 63 50 62 VRB6 30.00R Columbus CLOUDY 63 48 57 SW5 30.02R Detroit PTSUNNY 59 43 55 SW16 30.00F Chicago O`Hare CLOUDY 55 41 59 VRB5 29.94R Minneapolis MOSUNNY 43 26 51 N7 29.94R Indianapolis CLOUDY 53 47 79 SE5 30.00R Toronto Canada MOSUNNY 59 43 55 SW14G23 29.97F $$

USA.gov is the U.S. government's official web portal to all federal, state and local government web resources and services.